Location: Cerezo de Arriba
(41.2389°N, 3.5585°W)
Time: 01:12:01
(UTC+00:00)

Cosmos 1339 Rocket - Pass Details

Date: 19 May 2025
Orbit: 942 x 1004 km, 82.9° (Epoch: 24 June)

Event Time Altitude Azimuth Distance (km) Brightness Sun altitude
Exits shadow 23:20:31 62° 233° (SW) 1,059 4.5 -27.7°
Maximum altitude 23:21:20 70° 279° (W) 1,004 4.5 -27.7°
Drops below altitude 10° 23:27:24 10° 3° (N) 2,667 7.7 -28.0°
Sets 23:29:55 0° 6° (N) 3,617 8.6 -28.0°
